#timestamp,LO_Frequency,Hit,StdDev 
1614913215.4,286047005.2,Y
1614913235.3,286047004.1,P
1614913255.1,286047002.2,N
1614913275.9,286047001.7,N
1614913295.7,286046999.8,N
1614913315.5,286047000.3,N
1614913335.4,286047000.1,N
1614913355.2,286047000.5,N
1614913375.0,286046999.3,N
1614913375.9,286046999.3,N
1614913395.8,286046997.0,N
1614913415.6,286047000.8,N
1614913435.5,286047000.8,N
1614913455.3,286046996.5,N
1614913475.1,286047001.1,N
1614913495.9,286047001.2,N
1614913515.7,286046998.1,N
1614913535.6,286047002.8,N
1614913555.4,286047004.3,N
1614913575.2,286047004.3,N
1614913595.1,286047005.6,N
1614913596.0,286047005.6,N
1614913615.8,286047002.7,N
1614913635.6,286047001.1,N
1614913655.5,286046998.6,N
1614913675.3,286047000.4,N
1614913695.2,286046996.6,N
1614913715.9,286046996.0,N
1614913735.7,286046993.8,N
1614913755.6,286046994.1,N
1614913775.4,286046993.3,N
1614913795.2,286046995.1,N
1614913815.1,286046992.0,N
1614913816.0,286046992.0,N
1614913835.8,286046993.2,N
1614913855.7,286046992.9,N
1614913875.5,286046989.1,N
1614913895.3,286046987.4,N
1614913915.2,286046988.3,N
1614913935.0,286046988.1,N
1614913935.9,286046988.1,N
1614913955.7,286046986.4,N
1614913975.6,286046987.5,N
1614913995.4,286046989.8,N
1614914015.3,286046988.6,N
1614914035.1,286046988.7,N
1614914036.0,286046988.7,N
1614914055.8,286046986.9,N
1614914075.7,286046987.2,N
1614914095.5,286046989.4,N
1614914115.3,286046992.0,N
1614914135.2,286046994.6,N
1614914155.0,286046996.3,N
1614914155.9,286046996.3,N
1614914175.8,286046995.0,N
1614914195.6,286046996.6,N
1614914215.4,286046998.9,N
1614914235.3,286046997.3,N
1614914255.1,286046993.3,N
1614914275.9,286046992.8,N
1614914295.7,286046993.1,N
1614914315.5,286046992.0,N
1614914335.4,286046990.7,N
1614914355.2,286046994.6,N
1614914375.0,286046989.0,Y
1614914376.0,286046989.0,P
1614914395.8,286046996.8,N
1614914415.6,286046996.9,N
1614914435.5,286046995.3,N
1614914455.3,286046993.6,N
1614914475.1,286046995.7,N
1614914495.9,286046995.9,N
1614914515.7,286046994.6,N
1614914535.6,286046994.8,N
1614914555.4,286046994.7,N
1614914575.2,286046993.9,N
1614914595.1,286046993.3,Y
1614914596.0,286046993.3,P
1614914615.8,286047001.1,N
1614914635.7,286047000.8,N
1614914655.5,286047002.0,N
1614914675.3,286047006.7,N
1614914695.2,286047006.9,N
1614914715.0,286047008.7,N
1614914715.9,286047008.7,N
1614914735.7,286047011.9,N
1614914755.6,286047011.9,N
1614914775.4,286047010.1,N
1614914795.3,286047013.7,N
1614914815.1,286047012.1,N
1614914816.0,286047012.1,N
1614914835.8,286047012.4,N
1614914855.7,286047011.6,N
1614914875.5,286047011.7,N
1614914895.3,286047011.0,N
1614914915.2,286047015.4,N
1614914935.0,286047013.1,N
1614914935.9,286047013.1,N
1614914955.8,286047012.7,N
1614914975.6,286047013.4,N
1614914995.4,286047012.6,N
1614915015.3,286047015.0,N
1614915035.1,286047015.3,N
1614915055.8,286047015.4,N
1614915075.7,286047015.4,N
1614915095.5,286047015.6,N
1614915115.4,286047013.4,N
1614915135.2,286047012.1,N
1614915155.0,286047013.6,Y
1614915155.9,286047013.6,P
1614915175.8,286047000.7,N
1614915195.6,286047002.5,N
1614915215.4,286047002.2,N
1614915235.3,286047003.5,N
1614915255.1,286047003.0,N
1614915275.9,286047002.1,N
1614915295.7,286047007.0,N
1614915315.5,286047006.8,N
1614915335.4,286047004.3,N
1614915355.2,286047000.0,N
1614915375.0,286047000.7,N
1614915375.9,286047000.7,N
1614915395.8,286047002.6,N
1614915415.6,286047000.9,N
1614915435.5,286047003.7,N
1614915455.3,286047005.5,N
1614915475.1,286047004.2,N
1614915495.9,286047005.3,N
1614915515.7,286047004.1,N
1614915535.5,286047003.5,N
1614915555.4,286047003.4,N
1614915575.2,286047004.4,N
1614915595.0,286047003.1,N
1614915596.0,286047003.1,N
1614915615.8,286047001.3,N
1614915635.6,286047002.5,N
1614915655.5,286047001.2,N
1614915675.3,286047000.8,N
1614915695.1,286047000.0,N
1614915715.9,286047002.4,N
1614915735.7,286046999.9,N
1614915755.5,286047000.7,N
1614915775.4,286046999.1,N
1614915795.2,286046996.6,N
1614915815.1,286046999.4,N
1614915816.0,286046999.4,N
1614915835.8,286046999.3,N
1614915855.6,286046998.5,N
1614915875.5,286047000.6,N
1614915895.3,286047000.2,N
1614915915.1,286046999.4,N
1614915935.9,286046997.3,N
1614915955.7,286046998.0,N
1614915975.6,286046995.3,N
1614915995.4,286046996.8,N
1614916015.2,286046999.4,N
1614916035.1,286047000.9,N
1614916036.0,286047000.9,N
1614916055.8,286046998.2,N
1614916075.6,286047000.0,N
1614916095.5,286046997.2,N
1614916115.3,286046996.0,N
1614916135.2,286046996.4,N
1614916155.9,286046996.3,N
1614916175.7,286046994.0,Y
1614916195.6,286046997.1,P
1614916215.4,286046993.6,P
1614916235.2,286046996.4,N
1614916255.1,286046996.2,N
1614916256.0,286046996.2,N
1614916275.8,286046995.4,N
1614916295.7,286046992.2,Y
1614916315.5,286046993.6,P
1614916335.3,286046996.1,N
1614916355.2,286046995.8,P
1614916375.0,286046993.9,Y
1614916375.9,286046993.9,P
1614916395.8,286046996.6,P
1614916415.6,286046998.8,N
1614916435.4,286046996.9,N
1614916455.3,286046998.6,N
1614916475.1,286047000.5,N
1614916495.8,286046996.6,N
1614916515.7,286046996.7,N
1614916535.5,286046996.2,N
1614916555.4,286046995.2,N
1614916575.2,286046999.4,N
1614916595.0,286046997.2,N
1614916595.9,286046997.2,N
1614916615.8,286046998.2,N
1614916635.6,286047002.0,N
1614916655.4,286047000.4,N
1614916675.3,286047002.8,N
1614916695.1,286047000.8,N
1614916715.9,286047003.1,N
1614916735.7,286047001.3,N
1614916755.5,286047002.6,N
1614916775.4,286047000.4,N
1614916795.2,286046997.4,N
